Location: Mohawk View
(42.7837°N, 73.7885°W)
Time: 06:50:36
(UTC+00:00)

SL-8 R/B - Pass Details

Date: 17 June 2021
Orbit: 656 x 667 km, 48.4° (Epoch: 27 July)

Event Time Altitude Azimuth Distance (km) Brightness Sun altitude
Rises 02:24:48 0° 294° (WNW) 2,993 8.1 -15.2°
Reaches altitude 10° 02:27:12 10° 298° (WNW) 2,077 7.3 -15.5°
Maximum altitude 02:31:56 60° 18° (NNE) 755 4.1 -16.0°
Enters shadow 02:35:43 16° 96° (E) 1,720 5.5 -16.4°
